FW6512 Weather Reports


time (UTC)temp
C
wind
direction
speed
KPH
gust
KPH
rain 1hr
cm
rain 24hr
cm
rain mn
cm
humidity
%
barometer
mb
20260507142827 10 199 0.0 3.2 0.00 0.00 0.00 85 1018.8
20260507142800 10 192 0.0 1.6 0.00 0.00 0.00 85 1018.8
20260507141813 10 192 0.0 0.0 0.00 0.00 0.00 85 1018.8
20260507141306 10 196 0.0 1.6 0.00 0.00 0.00 85 1018.8
20260507141022 10 198 0.0 1.6 0.00 0.00 0.00 86 1018.8
20260507140518 10 194 0.0 0.0 0.00 0.00 0.00 86 1018.8
20260507135746 10 194 0.0 1.6 0.00 0.00 0.00 86 1019.1
20260507135239 10 196 0.0 1.6 0.00 0.00 0.00 85 1018.8
20260507134732 10 204 0.0 0.0 0.00 0.00 0.00 85 1018.8
20260507134225 10 192 0.0 1.6 0.00 0.00 0.00 85 1018.4
20260507133719 10 180 0.0 1.6 0.00 0.00 0.00 85 1018.4
20260507133432 10 198 0.0 1.6 0.00 0.00 0.00 86 1018.4
20260507132706 10 195 0.0 0.0 0.00 0.00 0.00 85 1018.4
20260507132159 9 206 0.0 1.6 0.00 0.00 0.00 85 1018.4
20260507131652 10 188 0.0 1.6 0.00 0.00 0.00 86 1018.4
20260507131146 10 194 0.0 3.2 0.00 0.00 0.00 86 1018.4
20260507130639 10 197 0.0 3.2 0.00 0.00 0.00 85 1018.4
20260507130133 10 199 0.0 3.2 0.00 0.00 0.00 85 1018.4
20260507125626 10 203 0.0 3.2 0.00 0.00 0.00 85 1018.4
20260507125119 10 193 0.0 1.6 0.00 0.00 0.00 85 1018.4
20260507124613 10 208 0.0 1.6 0.00 0.00 0.00 85 1018.8
20260507124105 10 195 0.0 1.6 0.00 0.00 0.00 85 1018.4
20260507123558 10 135 0.0 1.6 0.00 0.00 0.00 85 1018.4
20260507123052 9 193 0.0 1.6 0.00 0.00 0.00 85 1018.4
20260507122546 9 184 0.0 3.2 0.00 0.00 0.00 86 1018.8
20260507122039 9 212 0.0 3.2 0.00 0.00 0.00 86 1018.8
20260507121532 9 193 0.0 1.6 0.00 0.00 0.00 86 1018.8
20260507121025 9 199 0.0 3.2 0.00 0.00 0.00 85 1019.1
20260507120518 10 194 0.0 3.2 0.00 0.00 0.00 84 1018.8
20260507120012 10 178 0.0 3.2 0.00 0.00 0.00 85 1018.8
20260507115504 10 174 1.6 3.2 0.00 0.00 0.00 85 1018.8
20260507114958 10 177 0.0 3.2 0.00 0.00 0.00 85 1018.8
20260507114709 10 192 0.0 1.6 0.00 0.00 0.00 85 1019.1
20260507113944 10 161 1.6 1.6 0.00 0.00 0.00 85 1019.1
20260507113437 10 189 0.0 1.6 0.00 0.00 0.00 85 1019.1
20260507112930 10 191 0.0 1.6 0.00 0.00 0.00 85 1019.1
20260507112424 10 194 0.0 1.6 0.00 0.00 0.00 85 1019.1
20260507112139 10 193 0.0 1.6 0.00 0.00 0.00 84 1019.1
20260507111410 10 195 0.0 3.2 0.00 0.00 0.00 84 1019.1
20260507111350 10 192 0.0 3.2 0.00 0.00 0.00 84 1019.5
20260507110357 10 175 0.0 1.6 0.00 0.00 0.00 85 1019.1
20260507105851 10 178 0.0 3.2 0.00 0.00 0.00 85 1019.5
20260507105343 10 181 0.0 3.2 0.00 0.00 0.00 85 1019.1
20260507105103 10 190 0.0 3.2 0.00 0.00 0.00 85 1019.5
20260507104548 10 152 0.0 3.2 0.00 0.00 0.00 86 1019.5
20260507103823 9 164 0.0 1.6 0.00 0.00 0.00 86 1019.1
20260507103317 9 192 0.0 1.6 0.00 0.00 0.00 86 1019.1
20260507102810 9 194 0.0 1.6 0.00 0.00 0.00 86 1019.1
20260507102534 9 152 0.0 0.0 0.00 0.00 0.00 86 1019.5
20260507101756 10 185 0.0 0.0 0.00 0.00 0.00 86 1019.1
20260507101251 10 212 0.0 1.6 0.00 0.00 0.00 86 1019.5
20260507100744 10 186 0.0 1.6 0.00 0.00 0.00 86 1019.5
20260507100237 10 146 1.6 1.6 0.00 0.00 0.00 86 1019.1
20260507095731 10 191 0.0 1.6 0.00 0.00 0.00 87 1019.1
20260507095224 10 165 0.0 1.6 0.00 0.00 0.00 87 1019.1
20260507094912 10 189 0.0 0.0 0.00 0.00 0.00 88 1019.1
20260507094758 10 143 0.0 1.6 0.00 0.00 0.00 88 1019.1
20260507093704 10 187 0.0 0.0 0.00 0.00 0.00 88 1019.1
20260507093157 10 187 0.0 0.0 0.00 0.00 0.00 88 1019.5
20260507092651 10 192 0.0 0.0 0.00 0.00 0.00 88 1019.1
20260507092409 10 190 0.0 1.6 0.00 0.00 0.00 88 1019.5
20260507091637 10 198 0.0 1.6 0.00 0.00 0.00 89 1019.1
20260507091130 10 192 0.0 1.6 0.00 0.00 0.00 89 1019.1
20260507090624 10 178 0.0 1.6 0.00 0.00 0.00 89 1019.1
20260507090117 10 188 0.0 1.6 0.00 0.00 0.00 89 1018.8
20260507085611 10 199 0.0 1.6 0.00 0.00 0.00 89 1019.5
20260507085326 10 194 0.0 4.8 0.00 0.00 0.00 88 1019.5
20260507084818 10 199 0.0 4.8 0.00 0.00 0.00 88 1019.5
20260507084050 10 200 0.0 6.4 0.00 0.00 0.00 89 1019.5
20260507083544 10 190 0.0 6.4 0.00 0.00 0.00 89 1019.5
20260507083037 10 195 1.6 3.2 0.00 0.00 0.00 89 1019.1
20260507082531 10 196 0.0 3.2 0.00 0.00 0.00 90 1019.1
20260507082517 10 213 1.6 3.2 0.00 0.00 0.00 90 1019.5
20260507081517 10 174 0.0 4.8 0.00 0.00 0.00 90 1019.1
20260507081011 10 236 1.6 4.8 0.00 0.00 0.00 91 1019.1
20260507080504 10 198 0.0 4.8 0.00 0.00 0.00 91 1019.1
20260507080219 10 195 0.0 3.2 0.00 0.00 0.00 92 1019.5
20260507075715 10 203 0.0 1.6 0.00 0.00 0.00 92 1019.1
20260507075204 10 205 0.0 3.2 0.00 0.00 0.00 92 1019.5
20260507074437 10 199 0.0 3.2 0.00 0.00 0.00 92 1019.5
20260507073931 11 202 0.0 1.6 0.00 0.00 0.00 93 1019.5
20260507073423 11 198 0.0 1.6 0.00 0.00 0.00 93 1019.5
20260507072917 11 201 0.0 3.2 0.00 0.00 0.00 93 1019.1
20260507072410 10 199 0.0 6.4 0.00 0.00 0.00 93 1019.1
20260507071903 10 228 1.6 6.4 0.00 0.00 0.00 93 1019.1
20260507071357 11 186 0.0 1.6 0.00 0.00 0.00 94 1019.5
20260507070851 11 185 1.6 1.6 0.00 0.00 0.00 93 1019.5
20260507070344 11 211 0.0 3.2 0.00 0.00 0.00 93 1019.5
20260507065838 11 197 0.0 4.8 0.00 0.00 0.00 93 1019.1
20260507065331 11 202 4.8 4.8 0.00 0.00 0.00 92 1019.5
20260507064823 11 205 0.0 3.2 0.00 0.00 0.00 92 1018.8
20260507064316 11 200 0.0 1.6 0.00 0.00 0.00 92 1019.1
20260507063810 11 200 0.0 3.2 0.00 0.00 0.00 92 1019.1
20260507063303 11 218 0.0 3.2 0.00 0.00 0.00 91 1019.1
20260507062756 11 198 0.0 1.6 0.00 0.00 0.00 92 1019.5
20260507062250 11 213 1.6 4.8 0.00 0.00 0.00 92 1019.1
20260507062006 11 202 0.0 4.8 0.00 0.00 0.00 92 1019.1
20260507061237 11 187 0.0 4.8 0.00 0.00 0.00 92 1019.1
20260507060730 11 232 3.2 4.8 0.00 0.00 0.00 91 1019.1
20260507060223 11 244 3.2 4.8 0.00 0.00 0.00 91 1019.1
20260507055717 11 202 0.0 6.4 0.00 0.00 0.00 90 1019.5
20260507055211 11 212 0.0 6.4 0.00 0.00 0.00 89 1019.1
20260507054704 11 214 0.0 11.3 0.00 0.00 0.00 88 1019.1
20260507054157 11 228 3.2 11.3 0.00 0.00 0.00 87 1019.1
20260507053651 12 222 1.6 9.7 0.00 0.00 0.00 86 1019.1
20260507053144 12 207 1.6 4.8 0.00 0.00 0.00 85 1018.8
20260507052637 12 247 4.8 6.4 0.00 0.00 0.00 85 1019.1
20260507052131 12 196 0.0 6.4 0.00 0.00 0.00 84 1019.1
20260507051623 12 196 0.0 4.8 0.00 0.00 0.00 84 1019.1
20260507051117 12 229 0.0 4.8 0.00 0.00 0.00 84 1019.1
20260507050610 12 210 3.2 4.8 0.00 0.00 0.00 83 1019.1
20260507050103 12 211 0.0 4.8 0.00 0.00 0.00 83 1019.1
20260507045556 12 201 0.0 4.8 0.00 0.00 0.00 83 1019.1
20260507045049 12 217 0.0 4.8 0.00 0.00 0.00 83 1019.1
20260507044542 12 219 1.6 4.8 0.00 0.00 0.00 83 1019.1
20260507044036 12 204 0.0 1.6 0.00 0.00 0.00 83 1018.8
20260507043530 12 203 0.0 4.8 0.00 0.00 0.00 83 1019.1
20260507043258 12 197 0.0 4.8 0.00 0.00 0.00 83 1019.1
20260507043004 12 230 1.6 3.2 0.00 0.00 0.00 82 1018.8
20260507042009 12 199 0.0 4.8 0.00 0.00 0.00 82 1019.1
20260507041503 12 208 1.6 4.8 0.00 0.00 0.00 82 1019.1
20260507040956 12 184 0.0 4.8 0.00 0.00 0.00 82 1019.1
20260507040712 12 222 3.2 4.8 0.00 0.00 0.00 82 1018.8
20260507035942 12 192 1.6 4.8 0.00 0.00 0.00 82 1019.1
20260507035436 12 221 3.2 6.4 0.00 0.00 0.00 82 1019.1
20260507034929 12 219 3.2 6.4 0.00 0.00 0.00 82 1018.8
20260507034423 12 238 3.2 4.8 0.00 0.00 0.00 82 1018.8
20260507033916 12 205 3.2 11.3 0.00 0.00 0.00 82 1019.1
20260507033409 12 233 3.2 11.3 0.00 0.00 0.00 82 1018.8
20260507032905 12 205 3.2 3.2 0.00 0.00 0.00 82 1018.8
20260507032620 12 253 3.2 3.2 0.00 0.00 0.00 81 1018.8
20260507031850 12 204 0.0 4.8 0.00 0.00 0.00 81 1018.4
20260507031342 13 196 0.0 4.8 0.00 0.00 0.00 81 1018.4
20260507030836 13 209 4.8 6.4 0.00 0.00 0.00 80 1018.4
20260507030330 13 235 3.2 6.4 0.00 0.00 0.00 80 1018.4
20260507025821 13 195 1.6 6.4 0.00 0.00 0.00 80 1018.4
20260507025315 13 195 3.2 6.4 0.00 0.00 0.00 80 1018.4
20260507025034 13 236 4.8 6.4 0.00 0.00 0.00 79 1018.4
20260507024302 13 203 1.6 9.7 0.00 0.00 0.00 79 1018.4
20260507023755 13 245 3.2 11.3 0.00 0.00 0.00 79 1018.4
20260507023248 13 219 1.6 11.3 0.00 0.00 0.00 79 1018.4
20260507022741 13 200 0.0 6.4 0.00 0.00 0.00 79 1018.4
20260507022235 13 209 1.6 6.4 0.00 0.00 0.00 78 1018.1
20260507021728 13 191 0.0 6.4 0.00 0.00 0.00 79 1018.1
20260507021447 13 213 0.0 6.4 0.00 0.00 0.00 78 1018.4
20260507020716 13 196 0.0 6.4 0.00 0.00 0.00 78 1018.1
20260507020208 13 191 0.0 6.4 0.00 0.00 0.00 78 1018.4
20260507015701 13 200 0.0 6.4 0.00 0.00 0.00 77 1018.4
20260507015155 14 195 0.0 9.7 0.00 0.00 0.00 78 1018.1
20260507014648 13 198 0.0 9.7 0.00 0.00 0.00 78 1018.4
20260507014142 14 228 0.0 6.4 0.00 0.00 0.00 78 1018.4
20260507013635 14 209 0.0 4.8 0.00 0.00 0.00 77 1018.4
20260507013128 15 218 1.6 4.8 0.00 0.00 0.00 76 1018.1
20260507012621 15 237 1.6 6.4 0.00 0.00 0.00 75 1018.1
20260507012115 15 200 0.0 11.3 0.00 0.00 0.00 75 1018.1
20260507011608 15 193 4.8 11.3 0.00 0.00 0.00 76 1018.1
20260507011321 14 195 0.0 6.4 0.00 0.00 0.00 76 1018.1
20260507010555 14 195 0.0 6.4 0.00 0.00 0.00 76 1018.1
20260507010050 15 236 0.0 4.8 0.00 0.00 0.00 76 1018.4
20260507005541 15 202 0.0 3.2 0.00 0.00 0.00 75 1018.4
20260507005034 15 242 0.0 12.9 0.00 0.00 0.00 76 1018.4
20260507004528 15 208 4.8 12.9 0.00 0.00 0.00 76 1018.1
20260507004021 15 192 6.4 9.7 0.00 0.00 0.00 75 1018.1
20260507003516 15 220 1.6 9.7 0.00 0.00 0.00 75 1018.1
20260507003008 15 198 0.0 4.8 0.00 0.00 0.00 75 1018.1
20260507002502 15 225 0.0 6.4 0.00 0.00 0.00 75 1018.4
20260507001955 15 201 0.0 9.7 0.00 0.00 0.00 75 1018.1
20260507001448 15 245 1.6 9.7 0.00 0.00 0.00 74 1018.4
20260507000941 15 186 0.0 9.7 0.00 0.00 0.00 74 1018.1
20260507000435 15 230 4.8 9.7 0.00 0.00 0.00 74 1018.4
20260506235928 15 220 3.2 6.4 0.00 0.00 0.00 72 1018.4
20260506235421 15 211 1.6 4.8 0.00 0.00 0.00 72 1018.1
20260506234915 15 204 0.0 9.7 0.00 0.00 0.00 72 1018.4
20260506234408 15 188 4.8 6.4 0.00 0.00 0.00 71 1018.1
20260506233901 15 198 1.6 4.8 0.00 0.00 0.00 71 1018.4
20260506233355 15 175 3.2 9.7 0.00 0.00 0.00 72 1018.4
20260506232848 15 215 1.6 9.7 0.00 0.00 0.00 71 1018.4
20260506232341 16 160 1.6 4.8 0.00 0.00 0.00 70 1018.4
20260506231835 16 206 0.0 6.4 0.00 0.00 0.00 70 1018.1
20260506231327 16 203 1.6 9.7 0.00 0.00 0.00 72 1018.1
20260506230821 15 245 3.2 14.5 0.00 0.00 0.00 71 1018.1
20260506230314 16 219 1.6 14.5 0.00 0.00 0.00 72 1018.4
20260506225807 16 236 4.8 9.7 0.00 0.00 0.00 71 1018.1
20260506225300 15 256 1.6 12.9 0.00 0.00 0.00 72 1018.4
20260506224754 15 247 1.6 11.3 0.00 0.00 0.00 72 1018.4
20260506224248 15 193 3.2 11.3 0.00 0.00 0.00 73 1018.8
20260506223741 15 208 1.6 6.4 0.00 0.00 0.00 73 1018.4
20260506223234 15 196 1.6 6.4 0.00 0.00 0.00 74 1018.4
20260506222727 15 202 3.2 14.5 0.00 0.00 0.00 74 1018.4
20260506222448 15 257 1.6 14.5 0.00 0.00 0.00 74 1018.4
20260506221935 15 217 1.6 6.4 0.00 0.00 0.00 74 1018.8
20260506221208 15 198 0.0 4.8 0.00 0.00 0.00 74 1018.4
20260506220701 14 226 1.6 9.7 0.00 0.00 0.00 75 1018.8
20260506220154 14 194 0.0 9.7 0.00 0.00 0.00 76 1018.4
20260506215647 14 129 3.2 6.4 0.00 0.00 0.00 75 1018.8
20260506215141 14 192 3.2 4.8 0.00 0.00 0.00 76 1018.8
20260506214635 14 216 0.0 4.8 0.00 0.00 0.00 76 1018.8
20260506214128 14 249 1.6 6.4 0.00 0.00 0.00 76 1018.8
20260506213621 14 200 0.0 6.4 0.00 0.00 0.00 77 1018.8
20260506213343 14 209 0.0 11.3 0.00 0.00 0.00 75 1018.4
20260506212607 14 202 0.0 11.3 0.00 0.00 0.00 75 1018.8
20260506212319 14 194 6.4 9.7 0.00 0.00 0.00 75 1018.4
20260506211554 14 206 0.0 4.8 0.00 0.00 0.00 77 1018.8
20260506211048 14 204 0.0 6.4 0.00 0.00 0.00 76 1018.8
20260506210541 15 256 3.2 6.4 0.00 0.00 0.00 75 1018.4
20260506210034 15 224 1.6 6.4 0.00 0.00 0.00 75 1018.8
20260506205526 15 197 0.0 6.4 0.00 0.00 0.00 76 1018.8
20260506205246 14 229 3.2 6.4 0.00 0.00 0.00 75 1018.8
20260506204513 15 245 3.2 4.8 0.00 0.00 0.00 75 1018.8
20260506204006 15 198 1.6 3.2 0.00 0.00 0.00 75 1018.4
20260506203500 15 201 0.0 6.4 0.00 0.00 0.00 75 1018.4
20260506202953 15 190 3.2 6.4 0.00 0.00 0.00 76 1018.8
20260506202446 15 223 1.6 4.8 0.00 0.00 0.00 76 1018.4
20260506201940 15 207 0.0 4.8 0.00 0.00 0.00 76 1018.4
20260506201654 14 188 1.6 6.4 0.00 0.00 0.00 77 1018.4
20260506201146 14 204 1.6 9.7 0.00 0.00 0.00 78 1018.4
20260506200420 14 231 3.2 9.7 0.00 0.00 0.00 78 1018.4
20260506195913 13 187 1.6 9.7 0.00 0.00 0.00 80 1018.4
20260506195406 13 203 3.2 9.7 0.00 0.00 0.00 80 1018.4
20260506194900 13 245 1.6 11.3 0.00 0.00 0.00 80 1018.4
20260506194354 13 246 3.2 11.3 0.00 0.00 0.00 81 1018.4
20260506193846 14 223 0.0 4.8 0.00 0.00 0.00 81 1018.4
20260506193340 14 202 0.0 3.2 0.00 0.00 0.00 81 1018.4
20260506192833 14 211 1.6 11.3 0.00 0.00 0.00 81 1018.4
20260506192326 13 229 0.0 11.3 0.00 0.00 0.00 82 1018.1
20260506191821 13 233 0.0 11.3 0.00 0.00 0.00 82 1018.1
20260506191313 13 203 4.8 9.7 0.00 0.00 0.00 82 1018.4
20260506191026 13 192 1.6 3.2 0.00 0.00 0.00 82 1018.4
20260506190259 13 209 0.0 1.6 0.00 0.00 0.00 82 1018.1
20260506190016 13 195 0.0 4.8 0.00 0.00 0.00 82 1018.1
20260506185247 13 194 0.0 4.8 0.00 0.00 0.00 82 1018.1
20260506185005 13 214 1.6 4.8 0.00 0.00 0.00 83 1018.4
20260506184456 13 206 0.0 4.8 0.00 0.00 0.00 84 1018.4
20260506183726 13 202 0.0 3.2 0.00 0.00 0.00 83 1018.4
20260506183219 13 201 0.0 6.4 0.00 0.00 0.00 83 1018.4
20260506182714 13 201 0.0 6.4 0.00 0.00 0.00 83 1018.1
20260506182207 13 250 1.6 6.4 0.00 0.00 0.00 83 1017.8
20260506181659 13 211 6.4 6.4 0.00 0.00 0.00 83 1018.1
20260506181153 13 331 1.6 6.4 0.00 0.00 0.00 84 1018.1
20260506180646 13 265 0.0 6.4 0.00 0.00 0.00 84 1018.1
20260506180139 13 219 0.0 6.4 0.00 0.00 0.00 84 1018.1
20260506175633 13 194 0.0 3.2 0.00 0.00 0.00 84 1018.1
20260506175126 13 204 0.0 3.2 0.00 0.00 0.00 85 1018.1
20260506174619 13 241 0.0 4.8 0.00 0.00 0.00 85 1018.1
20260506174331 12 178 0.0 6.4 0.00 0.00 0.00 85 1018.1
20260506173606 12 262 3.2 6.4 0.00 0.00 0.00 85 1018.1
20260506173319 12 200 0.0 9.7 0.00 0.00 0.00 86 1018.4
20260506172552 12 221 1.6 9.7 0.00 0.00 0.00 86 1018.4
20260506172046 12 223 3.2 9.7 0.00 0.00 0.00 86 1018.4
20260506171539 12 190 3.2 6.4 0.00 0.00 0.00 86 1018.4
20260506171033 12 224 1.6 4.8 0.00 0.00 0.00 87 1018.1
20260506170526 12 194 0.0 6.4 0.00 0.00 0.00 87 1018.1
20260506170241 12 210 3.2 9.7 0.00 0.00 0.00 87 1018.1
20260506165732 12 205 1.6 9.7 0.00 0.00 0.00 87 1018.1
20260506165005 12 296 6.4 9.7 0.00 0.00 0.00 86 1018.1
20260506164459 12 202 0.0 11.3 0.00 0.00 0.00 87 1017.8
20260506163952 12 195 0.0 11.3 0.00 0.00 0.00 86 1018.1
20260506163445 12 193 1.6 4.8 0.00 0.00 0.00 86 1017.8
20260506162939 12 182 1.6 11.3 0.00 0.00 0.00 86 1017.8
20260506162432 12 194 0.0 11.3 0.00 0.00 0.00 87 1017.8
20260506162146 12 270 1.6 6.4 0.00 0.00 0.00 88 1017.4
20260506161418 12 180 1.6 6.4 0.00 0.00 0.00 88 1017.8
20260506160911 12 196 1.6 4.8 0.00 0.00 0.00 89 1017.8
20260506160404 11 224 0.0 6.4 0.00 0.00 0.00 90 1018.1
20260506155858 11 223 1.6 6.4 0.00 0.00 0.00 90 1017.8
20260506155352 11 227 1.6 4.8 0.00 0.00 0.00 90 1018.1
20260506155331 12 244 0.0 6.4 0.00 0.00 0.00 90 1017.8
20260506154338 11 230 0.0 6.4 0.00 0.00 0.00 90 1018.1
20260506153832 11 201 0.0 6.4 0.00 0.00 0.00 90 1018.1
20260506153325 11 189 0.0 6.4 0.00 0.00 0.00 90 1017.8
20260506152820 11 138 1.6 4.8 0.00 0.00 0.00 90 1017.4
20260506152535 11 180 0.0 4.8 0.00 0.00 0.00 91 1017.8
20260506152028 11 179 0.0 4.8 0.00 0.00 0.00 91 1017.8
20260506151258 11 190 1.6 4.8 0.00 0.00 0.00 91 1017.8
20260506150751 11 223 0.0 3.2 0.00 0.00 0.00 91 1017.8
20260506150245 11 224 1.6 3.2 0.00 0.00 0.00 91 1017.8
20260506145737 11 195 0.0 3.2 0.00 0.00 0.00 91 1018.1
20260506145452 11 197 0.0 4.8 0.00 0.00 0.00 91 1017.8
20260506144724 11 178 0.0 4.8 0.00 0.00 0.00 91 1017.8
20260506144217 11 213 1.6 4.8 0.00 0.00 0.00 91 1017.8
20260506143710 11 223 0.0 6.4 0.00 0.00 0.00 91 1017.8
20260506143204 11 240 1.6 4.8 0.00 0.00 0.00 91 1017.4